Year,Month,Day,Hour,Minute,Value (Times are PST for temperature in C)
2009,06,05,00,00,18.20
2009,06,05,00,01,18.20
2009,06,05,00,02,18.20
2009,06,05,00,03,18.20
2009,06,05,00,04,18.20
2009,06,05,00,05,18.10
2009,06,05,00,06,18.10
2009,06,05,00,07,18.00
2009,06,05,00,08,17.90
2009,06,05,00,09,17.90
2009,06,05,00,10,17.80
2009,06,05,00,11,17.70
2009,06,05,00,12,17.70
2009,06,05,00,13,17.70
2009,06,05,00,14,17.70
2009,06,05,00,15,17.70
2009,06,05,00,16,17.70
2009,06,05,00,17,17.80
2009,06,05,00,18,17.80
2009,06,05,00,19,17.80
2009,06,05,00,20,17.90
2009,06,05,00,21,17.90
2009,06,05,00,22,18.00
2009,06,05,00,23,18.10
2009,06,05,00,24,18.20
2009,06,05,00,25,18.20
2009,06,05,00,26,18.20
2009,06,05,00,27,18.20
2009,06,05,00,28,18.20
2009,06,05,00,29,18.20
2009,06,05,00,30,18.20
2009,06,05,00,31,18.10
2009,06,05,00,32,18.10
2009,06,05,00,33,18.00
2009,06,05,00,34,17.90
2009,06,05,00,35,17.90
2009,06,05,00,36,17.70
2009,06,05,00,37,17.60
2009,06,05,00,38,17.40
2009,06,05,00,39,17.30
2009,06,05,00,40,17.30
2009,06,05,00,41,17.20
2009,06,05,00,42,17.20
2009,06,05,00,43,17.20
2009,06,05,00,44,17.20
2009,06,05,00,45,17.20
2009,06,05,00,46,17.20
2009,06,05,00,47,17.20
2009,06,05,00,48,17.30
2009,06,05,00,49,17.30
2009,06,05,00,50,17.30
2009,06,05,00,51,17.30
2009,06,05,00,52,17.40
2009,06,05,00,53,17.40
2009,06,05,00,54,17.50
2009,06,05,00,55,17.50
2009,06,05,00,56,17.50
2009,06,05,00,57,17.50
2009,06,05,00,58,17.60
2009,06,05,00,59,17.60
2009,06,05,01,00,17.60
2009,06,05,01,01,17.60
2009,06,05,01,02,17.70
2009,06,05,01,03,17.70
2009,06,05,01,04,17.70
2009,06,05,01,05,17.70
2009,06,05,01,06,17.70
2009,06,05,01,07,17.70
2009,06,05,01,08,17.70
2009,06,05,01,09,17.70
2009,06,05,01,10,17.70
2009,06,05,01,11,17.60
2009,06,05,01,12,17.60
2009,06,05,01,13,17.60
2009,06,05,01,14,17.60
2009,06,05,01,15,17.60
2009,06,05,01,16,17.70
2009,06,05,01,17,17.70
2009,06,05,01,18,17.70
2009,06,05,01,19,17.80
2009,06,05,01,20,17.80
2009,06,05,01,21,17.80
2009,06,05,01,22,17.90
2009,06,05,01,23,17.90
2009,06,05,01,24,17.90
2009,06,05,01,25,17.90
2009,06,05,01,26,17.90
2009,06,05,01,27,18.00
2009,06,05,01,28,18.10
2009,06,05,01,29,18.10
2009,06,05,01,30,18.10
2009,06,05,01,31,18.10
2009,06,05,01,32,18.10
2009,06,05,01,33,18.10
2009,06,05,01,34,18.20
2009,06,05,01,35,18.20
2009,06,05,01,36,18.20
2009,06,05,01,37,18.20
2009,06,05,01,38,18.30
2009,06,05,01,39,18.40
2009,06,05,01,40,18.50
2009,06,05,01,41,18.60
2009,06,05,01,42,18.70
2009,06,05,01,43,18.80
2009,06,05,01,44,18.80
2009,06,05,01,45,18.90
2009,06,05,01,46,18.90
2009,06,05,01,47,18.90
2009,06,05,01,48,18.90
2009,06,05,01,49,18.80
2009,06,05,01,50,18.40
2009,06,05,01,51,18.00
2009,06,05,01,52,17.80
2009,06,05,01,53,17.60
2009,06,05,01,54,17.50
2009,06,05,01,55,17.40
2009,06,05,01,56,17.50
2009,06,05,01,57,17.60
2009,06,05,01,58,17.60
2009,06,05,01,59,17.60
2009,06,05,02,00,17.50
2009,06,05,02,01,17.70
2009,06,05,02,02,17.80
2009,06,05,02,03,17.90
2009,06,05,02,04,17.90
2009,06,05,02,05,17.90
2009,06,05,02,06,17.90
2009,06,05,02,07,17.90
2009,06,05,02,08,17.80
2009,06,05,02,09,17.80
2009,06,05,02,10,17.80
2009,06,05,02,11,17.70
2009,06,05,02,12,17.70
2009,06,05,02,13,17.70
2009,06,05,02,14,17.60
2009,06,05,02,15,17.60
2009,06,05,02,16,17.50
2009,06,05,02,17,17.30
2009,06,05,02,18,17.20
2009,06,05,02,19,17.10
2009,06,05,02,20,17.10
2009,06,05,02,21,17.10
2009,06,05,02,22,17.10
2009,06,05,02,23,17.10
2009,06,05,02,24,17.20
2009,06,05,02,25,17.20
2009,06,05,02,26,17.20
2009,06,05,02,27,17.10
2009,06,05,02,28,17.00
2009,06,05,02,29,16.80
2009,06,05,02,30,16.60
2009,06,05,02,31,16.30
2009,06,05,02,32,16.10
2009,06,05,02,33,15.90
2009,06,05,02,34,15.60
2009,06,05,02,35,15.20
2009,06,05,02,36,14.90
2009,06,05,02,37,14.70
2009,06,05,02,38,14.50
2009,06,05,02,39,14.30
2009,06,05,02,40,14.10
2009,06,05,02,41,14.00
2009,06,05,02,42,14.00
2009,06,05,02,43,13.90
2009,06,05,02,44,13.90
2009,06,05,02,45,13.90
2009,06,05,02,46,13.90
2009,06,05,02,47,13.90
2009,06,05,02,48,13.90
2009,06,05,02,49,13.80
2009,06,05,02,50,13.80
2009,06,05,02,51,13.70
2009,06,05,02,52,13.70
2009,06,05,02,53,13.70
2009,06,05,02,54,13.80
2009,06,05,02,55,13.80
2009,06,05,02,56,13.80
2009,06,05,02,57,13.70
2009,06,05,02,58,13.60
2009,06,05,02,59,13.60
2009,06,05,03,00,13.50
2009,06,05,03,01,13.50
2009,06,05,03,02,13.50
2009,06,05,03,03,13.50
2009,06,05,03,04,13.50
2009,06,05,03,05,13.60
2009,06,05,03,06,13.60
2009,06,05,03,07,13.70
2009,06,05,03,08,13.70
2009,06,05,03,09,13.80
2009,06,05,03,10,13.80
2009,06,05,03,11,13.80
2009,06,05,03,12,13.80
2009,06,05,03,13,13.70
2009,06,05,03,14,13.70
2009,06,05,03,15,13.70
2009,06,05,03,16,13.60
2009,06,05,03,17,13.60
2009,06,05,03,18,13.60
2009,06,05,03,19,13.50
2009,06,05,03,20,13.50
2009,06,05,03,21,13.40
2009,06,05,03,22,13.40
2009,06,05,03,23,13.30
2009,06,05,03,24,13.30
2009,06,05,03,25,13.30
2009,06,05,03,26,13.30
2009,06,05,03,27,13.30
2009,06,05,03,28,13.30
2009,06,05,03,29,13.30
2009,06,05,03,30,13.20
2009,06,05,03,31,13.20
2009,06,05,03,32,13.10
2009,06,05,03,33,13.10
2009,06,05,03,34,13.10
2009,06,05,03,35,13.00
2009,06,05,03,36,13.00
2009,06,05,03,37,13.00
2009,06,05,03,38,13.00
2009,06,05,03,39,13.00
2009,06,05,03,40,13.00
2009,06,05,03,41,13.00
2009,06,05,03,42,13.00
2009,06,05,03,43,12.90
2009,06,05,03,44,12.90
2009,06,05,03,45,12.90
2009,06,05,03,46,12.80
2009,06,05,03,47,12.80
2009,06,05,03,48,12.80
2009,06,05,03,49,12.70
2009,06,05,03,50,12.70
2009,06,05,03,51,12.80
2009,06,05,03,52,12.80
2009,06,05,03,53,12.80
2009,06,05,03,54,12.80
2009,06,05,03,55,12.80
2009,06,05,03,56,12.80
2009,06,05,03,57,12.80
2009,06,05,03,58,12.80
2009,06,05,03,59,12.80
2009,06,05,04,00,12.80
2009,06,05,04,01,12.70
2009,06,05,04,02,12.70
2009,06,05,04,03,12.60
2009,06,05,04,04,12.60
2009,06,05,04,05,12.60
2009,06,05,04,06,12.60
2009,06,05,04,07,12.60
2009,06,05,04,08,12.50
2009,06,05,04,09,12.50
2009,06,05,04,10,12.60
2009,06,05,04,11,12.60
2009,06,05,04,12,12.60
2009,06,05,04,13,12.50
2009,06,05,04,14,12.50
2009,06,05,04,15,12.50
2009,06,05,04,16,12.50
2009,06,05,04,17,12.50
2009,06,05,04,18,12.50
2009,06,05,04,19,12.50
2009,06,05,04,20,12.60
2009,06,05,04,21,12.50
2009,06,05,04,22,12.50
2009,06,05,04,23,12.50
2009,06,05,04,24,12.40
2009,06,05,04,25,12.40
2009,06,05,04,26,12.30
2009,06,05,04,27,12.30
2009,06,05,04,28,12.30
2009,06,05,04,29,12.30
2009,06,05,04,30,12.30
2009,06,05,04,31,12.30
2009,06,05,04,32,12.30
2009,06,05,04,33,12.30
2009,06,05,04,34,12.30
2009,06,05,04,35,12.30
2009,06,05,04,36,12.20
2009,06,05,04,37,12.20
2009,06,05,04,38,12.20
2009,06,05,04,39,12.30
2009,06,05,04,40,12.30
2009,06,05,04,41,12.30
2009,06,05,04,42,12.30
2009,06,05,04,43,12.30
2009,06,05,04,44,12.30
2009,06,05,04,45,12.30
2009,06,05,04,46,12.30
2009,06,05,04,47,12.30
2009,06,05,04,48,12.30
2009,06,05,04,49,12.20
2009,06,05,04,50,12.20
2009,06,05,04,51,12.20
2009,06,05,04,52,12.20
2009,06,05,04,53,12.20
2009,06,05,04,54,12.20
2009,06,05,04,55,12.20
2009,06,05,04,56,12.20
2009,06,05,04,57,12.20
2009,06,05,04,58,12.20
2009,06,05,04,59,12.20
2009,06,05,05,00,12.20
2009,06,05,05,01,12.30
2009,06,05,05,02,12.30
2009,06,05,05,03,12.30
2009,06,05,05,04,12.30
2009,06,05,05,05,12.30
2009,06,05,05,06,12.40
2009,06,05,05,07,12.40
2009,06,05,05,08,12.40
2009,06,05,05,09,12.50
2009,06,05,05,10,12.50
2009,06,05,05,11,12.50
2009,06,05,05,12,12.50
2009,06,05,05,13,12.50
2009,06,05,05,14,12.50
2009,06,05,05,15,12.50
2009,06,05,05,16,12.50
2009,06,05,05,17,12.50
2009,06,05,05,18,12.50
2009,06,05,05,19,12.60
2009,06,05,05,20,12.60
2009,06,05,05,21,12.70
2009,06,05,05,22,12.70
2009,06,05,05,23,12.70
2009,06,05,05,24,12.80
2009,06,05,05,25,12.80
2009,06,05,05,26,12.80
2009,06,05,05,27,12.80
2009,06,05,05,28,12.80
2009,06,05,05,29,12.80
2009,06,05,05,30,12.80
2009,06,05,05,31,12.90
2009,06,05,05,32,13.00
2009,06,05,05,33,13.20
2009,06,05,05,34,13.30
2009,06,05,05,35,13.30
2009,06,05,05,36,13.30
2009,06,05,05,37,13.30
2009,06,05,05,38,13.30
2009,06,05,05,39,13.20
2009,06,05,05,40,13.20
2009,06,05,05,41,13.10
2009,06,05,05,42,13.10
2009,06,05,05,43,13.10
2009,06,05,05,44,13.10
2009,06,05,05,45,13.10
2009,06,05,05,46,13.10
2009,06,05,05,47,13.20
2009,06,05,05,48,13.20
2009,06,05,05,49,13.30
2009,06,05,05,50,13.30
2009,06,05,05,51,13.30
2009,06,05,05,52,13.30
2009,06,05,05,53,13.30
2009,06,05,05,54,13.30
2009,06,05,05,55,13.40
2009,06,05,05,56,13.40
2009,06,05,05,57,13.40
2009,06,05,05,58,13.40
2009,06,05,05,59,13.40
2009,06,05,06,00,13.30
2009,06,05,06,01,13.30
2009,06,05,06,02,13.30
2009,06,05,06,03,13.30
2009,06,05,06,04,13.40
2009,06,05,06,05,13.50
2009,06,05,06,06,13.60
2009,06,05,06,07,13.70
2009,06,05,06,08,13.80
2009,06,05,06,09,13.90
2009,06,05,06,10,13.80
2009,06,05,06,11,13.80
2009,06,05,06,12,13.80
2009,06,05,06,13,13.70
2009,06,05,06,14,13.70
2009,06,05,06,15,13.70
2009,06,05,06,16,13.60
2009,06,05,06,17,13.60
2009,06,05,06,18,13.60
2009,06,05,06,19,13.60
2009,06,05,06,20,13.60
2009,06,05,06,21,13.60
2009,06,05,06,22,13.60
2009,06,05,06,23,13.60
2009,06,05,06,24,13.60
2009,06,05,06,25,13.60
2009,06,05,06,26,13.60
2009,06,05,06,27,13.50
2009,06,05,06,28,13.50
2009,06,05,06,29,13.50
2009,06,05,06,30,13.40
2009,06,05,06,31,13.30
2009,06,05,06,32,13.30
2009,06,05,06,33,13.30
2009,06,05,06,34,13.30
2009,06,05,06,35,13.20
2009,06,05,06,36,13.20
2009,06,05,06,37,13.20
2009,06,05,06,38,13.20
2009,06,05,06,39,13.20
2009,06,05,06,40,13.30
2009,06,05,06,41,13.30
2009,06,05,06,42,13.30
2009,06,05,06,43,13.40
2009,06,05,06,44,13.40
2009,06,05,06,45,13.60
2009,06,05,06,46,13.60
2009,06,05,06,47,13.80
2009,06,05,06,48,13.90
2009,06,05,06,49,14.00
2009,06,05,06,50,14.10
2009,06,05,06,51,14.10
2009,06,05,06,52,14.20
2009,06,05,06,53,14.20
2009,06,05,06,54,14.20
2009,06,05,06,55,14.20
2009,06,05,06,56,14.20
2009,06,05,06,57,14.20
2009,06,05,06,58,14.20
2009,06,05,06,59,14.20
2009,06,05,07,00,14.20
2009,06,05,07,01,14.20
2009,06,05,07,02,14.20
2009,06,05,07,03,14.10
2009,06,05,07,04,14.00
2009,06,05,07,05,14.00
2009,06,05,07,06,13.90
2009,06,05,07,07,13.80
2009,06,05,07,08,13.70
2009,06,05,07,09,13.60
2009,06,05,07,10,13.50
2009,06,05,07,11,13.40
2009,06,05,07,12,13.30
2009,06,05,07,13,13.30
2009,06,05,07,14,13.30
2009,06,05,07,15,13.20
2009,06,05,07,16,13.20
2009,06,05,07,17,13.30
2009,06,05,07,18,13.30
2009,06,05,07,19,13.30
2009,06,05,07,20,13.30
2009,06,05,07,21,13.30
2009,06,05,07,22,13.40
2009,06,05,07,23,13.40
2009,06,05,07,24,13.50
2009,06,05,07,25,13.50
2009,06,05,07,26,13.60
2009,06,05,07,27,13.70
2009,06,05,07,28,13.70
2009,06,05,07,29,13.70
2009,06,05,07,30,13.90
2009,06,05,07,31,14.00
2009,06,05,07,32,14.10
2009,06,05,07,33,14.20
2009,06,05,07,34,14.40
2009,06,05,07,35,14.50
2009,06,05,07,36,14.60
2009,06,05,07,37,14.70
2009,06,05,07,38,14.80
2009,06,05,07,39,14.80
2009,06,05,07,40,14.80
2009,06,05,07,41,14.90
2009,06,05,07,42,14.90
2009,06,05,07,43,14.90
2009,06,05,07,44,14.90
2009,06,05,07,45,14.90
2009,06,05,07,46,14.90
2009,06,05,07,47,14.80
2009,06,05,07,48,14.80
2009,06,05,07,49,14.90
2009,06,05,07,50,14.80
2009,06,05,07,51,14.80
2009,06,05,07,52,14.80
2009,06,05,07,53,14.80
2009,06,05,07,54,14.80
2009,06,05,07,55,14.80
2009,06,05,07,56,14.80
2009,06,05,07,57,14.80
2009,06,05,07,58,14.70
2009,06,05,07,59,14.70
2009,06,05,08,00,14.70
2009,06,05,08,01,14.80
2009,06,05,08,02,14.80
2009,06,05,08,03,14.80
2009,06,05,08,04,14.80
2009,06,05,08,05,14.80
2009,06,05,08,06,14.80
2009,06,05,08,07,14.70
2009,06,05,08,08,14.70
2009,06,05,08,09,14.60
2009,06,05,08,10,14.50
2009,06,05,08,11,14.30
2009,06,05,08,12,14.20
2009,06,05,08,13,14.10
2009,06,05,08,14,14.00
2009,06,05,08,15,13.90
2009,06,05,08,16,13.80
2009,06,05,08,17,13.80
2009,06,05,08,18,13.80
2009,06,05,08,19,13.90
2009,06,05,08,20,13.90
2009,06,05,08,21,14.00
2009,06,05,08,22,14.10
2009,06,05,08,23,14.10
2009,06,05,08,24,14.20
2009,06,05,08,25,14.20
2009,06,05,08,26,14.20
2009,06,05,08,27,14.20
2009,06,05,08,28,14.40
2009,06,05,08,29,14.50
2009,06,05,08,30,14.50
2009,06,05,08,31,14.50
2009,06,05,08,32,14.50
2009,06,05,08,33,14.40
2009,06,05,08,34,14.40
2009,06,05,08,35,14.40
2009,06,05,08,36,14.40
2009,06,05,08,37,14.50
2009,06,05,08,38,14.50
2009,06,05,08,39,14.60
2009,06,05,08,40,14.70
2009,06,05,08,41,14.80
2009,06,05,08,42,14.80
2009,06,05,08,43,14.90
2009,06,05,08,44,15.00
2009,06,05,08,45,15.10
2009,06,05,08,46,15.20
2009,06,05,08,47,15.30
2009,06,05,08,48,15.40
2009,06,05,08,49,15.50
2009,06,05,08,50,15.60
2009,06,05,08,51,15.70
2009,06,05,08,52,15.80
2009,06,05,08,53,15.80
2009,06,05,08,54,15.80
2009,06,05,08,55,15.80
2009,06,05,08,56,15.70
2009,06,05,08,57,15.60
2009,06,05,08,58,15.50
2009,06,05,08,59,15.30
2009,06,05,09,00,15.30
2009,06,05,09,01,15.10
2009,06,05,09,02,15.00
2009,06,05,09,03,14.90
2009,06,05,09,04,14.90
2009,06,05,09,05,14.90
2009,06,05,09,06,14.70
2009,06,05,09,07,14.60
2009,06,05,09,08,14.50
2009,06,05,09,09,14.40
2009,06,05,09,10,14.30
2009,06,05,09,11,14.20
2009,06,05,09,12,14.20
2009,06,05,09,13,14.20
2009,06,05,09,14,14.20
2009,06,05,09,15,14.20
2009,06,05,09,16,14.20
2009,06,05,09,17,14.20
2009,06,05,09,18,14.20
2009,06,05,09,19,14.20
2009,06,05,09,20,14.30
2009,06,05,09,21,14.40
2009,06,05,09,22,14.50
2009,06,05,09,23,14.60
2009,06,05,09,24,14.60
2009,06,05,09,25,14.70
2009,06,05,09,26,14.80
2009,06,05,09,27,14.80
2009,06,05,09,28,14.70
2009,06,05,09,29,14.70
2009,06,05,09,30,14.70
2009,06,05,09,31,14.60
2009,06,05,09,32,14.50
2009,06,05,09,33,14.50
2009,06,05,09,34,14.40
2009,06,05,09,35,14.30
2009,06,05,09,36,14.30
2009,06,05,09,37,14.30
2009,06,05,09,38,14.30
2009,06,05,09,39,14.30
2009,06,05,09,40,14.40
2009,06,05,09,41,14.40
2009,06,05,09,42,14.50
2009,06,05,09,43,14.50
2009,06,05,09,44,14.60
2009,06,05,09,45,14.60
2009,06,05,09,46,14.60
2009,06,05,09,47,14.60
2009,06,05,09,48,14.60
2009,06,05,09,49,14.60
2009,06,05,09,50,14.60
2009,06,05,09,51,14.70
2009,06,05,09,52,14.70
2009,06,05,09,53,14.70
2009,06,05,09,54,14.80
2009,06,05,09,55,14.80
2009,06,05,09,56,14.90
2009,06,05,09,57,15.00
2009,06,05,09,58,15.10
2009,06,05,09,59,15.30
2009,06,05,10,00,15.30
2009,06,05,10,01,15.40
2009,06,05,10,02,15.40
2009,06,05,10,03,15.30
2009,06,05,10,04,15.30
2009,06,05,10,05,15.40
2009,06,05,10,06,15.40
2009,06,05,10,07,15.50
2009,06,05,10,08,15.60
2009,06,05,10,09,15.80
2009,06,05,10,10,15.90
2009,06,05,10,11,16.10
2009,06,05,10,12,16.10
2009,06,05,10,13,16.20
2009,06,05,10,14,16.40
2009,06,05,10,15,16.40
2009,06,05,10,16,16.60
2009,06,05,10,17,16.70
2009,06,05,10,18,16.70
2009,06,05,10,19,16.70
2009,06,05,10,20,16.70
2009,06,05,10,21,16.70
2009,06,05,10,22,16.70
2009,06,05,10,23,16.70
2009,06,05,10,24,16.70
2009,06,05,10,25,16.80
2009,06,05,10,26,16.90
2009,06,05,10,27,16.90
2009,06,05,10,28,17.00
2009,06,05,10,29,17.10
2009,06,05,10,30,17.20
2009,06,05,10,31,17.10
2009,06,05,10,32,17.00
2009,06,05,10,33,16.70
2009,06,05,10,34,16.50
2009,06,05,10,35,16.40
2009,06,05,10,36,16.20
2009,06,05,10,37,16.10
2009,06,05,10,38,15.90
2009,06,05,10,39,15.80
2009,06,05,10,40,15.60
2009,06,05,10,41,15.60
2009,06,05,10,42,15.60
2009,06,05,10,43,15.50
2009,06,05,10,44,15.40
2009,06,05,10,45,15.40
2009,06,05,10,46,15.30
2009,06,05,10,47,15.30
2009,06,05,10,48,15.20
2009,06,05,10,49,15.00
2009,06,05,10,50,14.90
2009,06,05,10,51,14.90
2009,06,05,10,52,14.90
2009,06,05,10,53,14.80
2009,06,05,10,54,14.80
2009,06,05,10,55,14.70
2009,06,05,10,56,14.70
2009,06,05,10,57,14.60
2009,06,05,10,58,14.50
2009,06,05,10,59,14.30
2009,06,05,11,00,14.20
2009,06,05,11,01,14.20
2009,06,05,11,02,14.20
2009,06,05,11,03,14.20
2009,06,05,11,04,14.30
2009,06,05,11,05,14.30
2009,06,05,11,06,14.30
2009,06,05,11,07,14.30
2009,06,05,11,08,14.30
2009,06,05,11,09,14.30
2009,06,05,11,10,14.20
2009,06,05,11,11,14.20
2009,06,05,11,12,14.20
2009,06,05,11,13,14.20
2009,06,05,11,14,14.20
2009,06,05,11,15,14.20
2009,06,05,11,16,14.20
2009,06,05,11,17,14.20
2009,06,05,11,18,14.20
2009,06,05,11,19,14.20
2009,06,05,11,20,14.20
2009,06,05,11,21,14.20
2009,06,05,11,22,14.20
2009,06,05,11,23,14.20
2009,06,05,11,24,14.30
2009,06,05,11,25,14.30
2009,06,05,11,26,14.30
2009,06,05,11,27,14.50
2009,06,05,11,28,14.60
2009,06,05,11,29,14.70
2009,06,05,11,30,14.80
2009,06,05,11,31,14.70
2009,06,05,11,32,14.60
2009,06,05,11,33,14.60
2009,06,05,11,34,14.60
2009,06,05,11,35,14.60
2009,06,05,11,36,14.70
2009,06,05,11,37,14.80
2009,06,05,11,38,14.80
2009,06,05,11,39,14.80
2009,06,05,11,40,14.90
2009,06,05,11,41,14.80
2009,06,05,11,42,14.90
2009,06,05,11,43,15.00
2009,06,05,11,44,15.00
2009,06,05,11,45,15.20
2009,06,05,11,46,15.30
2009,06,05,11,47,15.40
2009,06,05,11,48,15.40
2009,06,05,11,49,15.50
2009,06,05,11,50,15.50
2009,06,05,11,51,15.60
2009,06,05,11,52,15.70
2009,06,05,11,53,15.70
2009,06,05,11,54,15.80
2009,06,05,11,55,15.90
2009,06,05,11,56,16.00
2009,06,05,11,57,16.10
2009,06,05,11,58,16.00
2009,06,05,11,59,15.90
2009,06,05,12,00,15.80
2009,06,05,12,01,15.80
2009,06,05,12,02,15.90
2009,06,05,12,03,15.90
2009,06,05,12,04,16.00
2009,06,05,12,05,15.90
2009,06,05,12,06,15.80
2009,06,05,12,07,15.80
2009,06,05,12,08,15.80
2009,06,05,12,09,15.80
2009,06,05,12,10,15.80
2009,06,05,12,11,15.80
2009,06,05,12,12,15.80
2009,06,05,12,13,15.80
2009,06,05,12,14,16.00
2009,06,05,12,15,16.20
2009,06,05,12,16,16.30
2009,06,05,12,17,16.40
2009,06,05,12,18,16.50
2009,06,05,12,19,16.50
2009,06,05,12,20,16.60
2009,06,05,12,21,16.60
2009,06,05,12,22,16.60
2009,06,05,12,23,16.70
2009,06,05,12,24,16.80
2009,06,05,12,25,16.80
2009,06,05,12,26,16.90
2009,06,05,12,27,17.00
2009,06,05,12,28,17.10
2009,06,05,12,29,17.10
2009,06,05,12,30,17.00
2009,06,05,12,31,17.00
2009,06,05,12,32,17.00
2009,06,05,12,33,17.20
2009,06,05,12,34,17.10
2009,06,05,12,35,17.10
2009,06,05,12,36,17.20
2009,06,05,12,37,17.30
2009,06,05,12,38,17.30
2009,06,05,12,39,17.40
2009,06,05,12,40,17.40
2009,06,05,12,41,17.50
2009,06,05,12,42,17.40
2009,06,05,12,43,17.40
2009,06,05,12,44,17.50
2009,06,05,12,45,17.50
2009,06,05,12,46,17.50
2009,06,05,12,47,17.40
2009,06,05,12,48,17.30
2009,06,05,12,49,17.30
2009,06,05,12,50,17.20
2009,06,05,12,51,17.20
2009,06,05,12,52,17.30
2009,06,05,12,53,17.20
2009,06,05,12,54,17.30
2009,06,05,12,55,17.30
2009,06,05,12,56,17.20
2009,06,05,12,57,17.10
2009,06,05,12,58,17.00
2009,06,05,12,59,17.00
2009,06,05,13,00,17.00
2009,06,05,13,01,17.10
2009,06,05,13,02,17.20
2009,06,05,13,03,17.30
2009,06,05,13,04,17.40
2009,06,05,13,05,17.40
2009,06,05,13,06,17.40
2009,06,05,13,07,17.60
2009,06,05,13,08,17.80
2009,06,05,13,09,17.80
2009,06,05,13,10,17.80
2009,06,05,13,11,17.90
2009,06,05,13,12,17.90
2009,06,05,13,13,17.90
2009,06,05,13,14,17.80
2009,06,05,13,15,17.70
2009,06,05,13,16,17.80
2009,06,05,13,17,17.80
2009,06,05,13,18,18.00
2009,06,05,13,19,18.10
2009,06,05,13,20,18.10
2009,06,05,13,21,18.00
2009,06,05,13,22,17.90
2009,06,05,13,23,18.10
2009,06,05,13,24,17.90
2009,06,05,13,25,18.00
2009,06,05,13,26,18.10
2009,06,05,13,27,18.20
2009,06,05,13,28,18.30
2009,06,05,13,29,18.30
2009,06,05,13,30,18.10
2009,06,05,13,31,17.90
2009,06,05,13,32,17.90
2009,06,05,13,33,17.90
2009,06,05,13,34,17.90
2009,06,05,13,35,17.70
2009,06,05,13,36,17.70
2009,06,05,13,37,17.50
2009,06,05,13,38,17.30
2009,06,05,13,39,17.30
2009,06,05,13,40,17.20
2009,06,05,13,41,17.20
2009,06,05,13,42,17.20
2009,06,05,13,43,17.30
2009,06,05,13,44,17.30
2009,06,05,13,45,17.20
2009,06,05,13,46,17.20
2009,06,05,13,47,17.10
2009,06,05,13,48,17.00
2009,06,05,13,49,17.00
2009,06,05,13,50,17.00
2009,06,05,13,51,17.00
2009,06,05,13,52,17.00
2009,06,05,13,53,17.20
2009,06,05,13,54,17.40
2009,06,05,13,55,17.60
2009,06,05,13,56,17.70
2009,06,05,13,57,17.80
2009,06,05,13,58,18.00
2009,06,05,13,59,18.10
2009,06,05,14,00,18.10
2009,06,05,14,01,18.00
2009,06,05,14,02,17.90
2009,06,05,14,03,17.80
2009,06,05,14,04,17.70
2009,06,05,14,05,17.80
2009,06,05,14,06,17.70
2009,06,05,14,07,17.50
2009,06,05,14,08,17.30
2009,06,05,14,09,17.20
2009,06,05,14,10,17.00
2009,06,05,14,11,17.00
2009,06,05,14,12,17.00
2009,06,05,14,13,16.90
2009,06,05,14,14,16.80
2009,06,05,14,15,16.80
2009,06,05,14,16,16.80
2009,06,05,14,17,16.80
2009,06,05,14,18,16.80
2009,06,05,14,19,16.70
2009,06,05,14,20,16.40
2009,06,05,14,21,16.30
2009,06,05,14,22,16.30
2009,06,05,14,23,16.20
2009,06,05,14,24,16.10
2009,06,05,14,25,16.10
2009,06,05,14,26,16.10
2009,06,05,14,27,16.10
2009,06,05,14,28,16.00
2009,06,05,14,29,15.80
2009,06,05,14,30,15.80
2009,06,05,14,31,15.80
2009,06,05,14,32,15.80
2009,06,05,14,33,15.70
2009,06,05,14,34,15.60
2009,06,05,14,35,15.50
2009,06,05,14,36,15.40
2009,06,05,14,37,15.30
2009,06,05,14,38,15.30
2009,06,05,14,39,15.30
2009,06,05,14,40,15.30
2009,06,05,14,41,15.30
2009,06,05,14,42,15.30
2009,06,05,14,43,15.50
2009,06,05,14,44,15.60
2009,06,05,14,45,15.70
2009,06,05,14,46,15.80
2009,06,05,14,47,15.80
2009,06,05,14,48,15.80
2009,06,05,14,49,15.80
2009,06,05,14,50,15.70
2009,06,05,14,51,15.60
2009,06,05,14,52,15.50
2009,06,05,14,53,15.50
2009,06,05,14,54,15.50
2009,06,05,14,55,15.50
2009,06,05,14,56,15.50
2009,06,05,14,57,15.60
2009,06,05,14,58,15.60
2009,06,05,14,59,15.70
2009,06,05,15,00,15.80
2009,06,05,15,01,15.80
2009,06,05,15,02,15.80
2009,06,05,15,03,15.80
2009,06,05,15,04,15.70
2009,06,05,15,05,15.70
2009,06,05,15,06,15.70
2009,06,05,15,07,15.80
2009,06,05,15,08,15.80
2009,06,05,15,09,15.80
2009,06,05,15,10,15.80
2009,06,05,15,11,15.70
2009,06,05,15,12,15.70
2009,06,05,15,13,15.80
2009,06,05,15,14,15.70
2009,06,05,15,15,15.80
2009,06,05,15,16,15.80
2009,06,05,15,17,15.80
2009,06,05,15,18,15.90
2009,06,05,15,19,15.80
2009,06,05,15,20,15.80
2009,06,05,15,21,15.80
2009,06,05,15,22,15.90
2009,06,05,15,23,15.90
2009,06,05,15,24,15.90
2009,06,05,15,25,15.90
2009,06,05,15,26,15.90
2009,06,05,15,27,15.90
2009,06,05,15,28,16.10
2009,06,05,15,29,15.90
2009,06,05,15,30,15.70
2009,06,05,15,31,15.40
2009,06,05,15,32,15.30
2009,06,05,15,33,15.30
2009,06,05,15,34,15.30
2009,06,05,15,35,15.30
2009,06,05,15,36,15.30
2009,06,05,15,37,15.50
2009,06,05,15,38,15.50
2009,06,05,15,39,15.50
2009,06,05,15,40,15.40
2009,06,05,15,41,15.30
2009,06,05,15,42,15.30
2009,06,05,15,43,15.30
2009,06,05,15,44,15.20
2009,06,05,15,45,15.20
2009,06,05,15,46,15.10
2009,06,05,15,47,15.00
2009,06,05,15,48,14.90
2009,06,05,15,49,14.80
2009,06,05,15,50,14.80
2009,06,05,15,51,14.80
2009,06,05,15,52,14.80
2009,06,05,15,53,14.80
2009,06,05,15,54,14.80
2009,06,05,15,55,14.80
2009,06,05,15,56,14.80
2009,06,05,15,57,14.80
2009,06,05,15,58,14.90
2009,06,05,15,59,14.90
2009,06,05,16,00,15.00
2009,06,05,16,01,15.00
2009,06,05,16,02,15.10
2009,06,05,16,03,15.10
2009,06,05,16,04,15.20
2009,06,05,16,05,15.30
2009,06,05,16,06,15.30
2009,06,05,16,07,15.40
2009,06,05,16,08,15.40
2009,06,05,16,09,15.50
2009,06,05,16,10,15.40
2009,06,05,16,11,15.50
2009,06,05,16,12,15.50
2009,06,05,16,13,15.50
2009,06,05,16,14,15.40
2009,06,05,16,15,15.50
2009,06,05,16,16,15.60
2009,06,05,16,17,15.70
2009,06,05,16,18,15.80
2009,06,05,16,19,15.80
2009,06,05,16,20,15.70
2009,06,05,16,21,15.60
2009,06,05,16,22,15.60
2009,06,05,16,23,15.50
2009,06,05,16,24,15.50
2009,06,05,16,25,15.60
2009,06,05,16,26,15.60
2009,06,05,16,27,15.70
2009,06,05,16,28,15.80
2009,06,05,16,29,15.80
2009,06,05,16,30,15.90
2009,06,05,16,31,16.10
2009,06,05,16,32,16.30
2009,06,05,16,33,16.40
2009,06,05,16,34,16.60
2009,06,05,16,35,16.80
2009,06,05,16,36,17.00
2009,06,05,16,37,17.30
2009,06,05,16,38,17.40
2009,06,05,16,39,17.50
2009,06,05,16,40,17.70
2009,06,05,16,41,17.80
2009,06,05,16,42,18.00
2009,06,05,16,43,18.10
2009,06,05,16,44,18.30
2009,06,05,16,45,18.50
2009,06,05,16,46,18.60
2009,06,05,16,47,18.60
2009,06,05,16,48,18.70
2009,06,05,16,49,18.70
2009,06,05,16,50,18.70
2009,06,05,16,51,18.80
2009,06,05,16,52,18.70
2009,06,05,16,53,18.80
2009,06,05,16,54,18.70
2009,06,05,16,55,18.70
2009,06,05,16,56,18.70
2009,06,05,16,57,18.60
2009,06,05,16,58,18.60
2009,06,05,16,59,18.60
2009,06,05,17,00,18.50
2009,06,05,17,01,18.50
2009,06,05,17,02,18.50
2009,06,05,17,03,18.40
2009,06,05,17,04,18.40
2009,06,05,17,05,18.30
2009,06,05,17,06,18.20
2009,06,05,17,07,18.20
2009,06,05,17,08,18.20
2009,06,05,17,09,18.30
2009,06,05,17,10,18.30
2009,06,05,17,11,18.40
2009,06,05,17,12,18.40
2009,06,05,17,13,18.50
2009,06,05,17,14,18.50
2009,06,05,17,15,18.50
2009,06,05,17,16,18.50
2009,06,05,17,17,18.60
2009,06,05,17,18,18.60
2009,06,05,17,19,18.60